Tracking 18987 objects as of 25-Feb-2018
HD Live streaming from Space Station
objects crossing your sky now

COSMOS 827

Track COSMOS 827 now!
10-day predictions
COSMOS 827 is classified as:


NORAD ID: 8891
Int'l Code: 1976-054C
Perigee: 1,419.7 km
Apogee: 1,496.3 km
Inclination: 74.0 °
Period: 114.9 minutes
Semi major axis: 7829 km
RCS: 0.6693 m2 (medium)
Launch date: June 15, 1976
Source: Commonwealth of Independent States (former USSR) (CIS)
Launch site: PLESETSK MISSILE AND SPACE COMPLEX (PKMTR)
aabbcc
Your satellite tracking list
Your tracking list is empty




NASA's NSSDC Master Catalog

Two Line Element Set (TLE):
1  8891U 76054C   18055.90143400 +.00000008 +00000-0 +15405-3 0  9994
2  8891 073.9977 238.0649 0048954 179.4101 288.5550 12.53261682325464
Source of the keplerian elements: AFSPC